N31WX DTTJ-DTTA

Flight info

Callsign N31WX
Flight time N/A
Altitude 22000
Route BISKO1A BISKO A411 TUC
Aircraft A319/M-SDE3FGHIRWY/LB1

Departure

Time 2026-04-24 16:28
Airport Djerba Zarzis International Airport (DTTJ)

Arrival

Time N/A
Airport Tunis Carthage International Airport (DTTA)
Time Latitude Longitude Altitude Speed Heading
2026-04-24 16:06 33.87320 10.77579 27 ft 0 kts 178°
2026-04-24 16:21 33.87364 10.77578 27 ft 4 kts 202°
2026-04-24 16:21 33.87381 10.77597 26 ft 4 kts 253°
2026-04-24 16:21 33.87384 10.77615 26 ft 0 kts 268°
2026-04-24 16:24 33.87384 10.77581 26 ft 0 kts 269°
2026-04-24 16:24 33.87382 10.77531 27 ft 9 kts 266°
2026-04-24 16:24 33.87380 10.77436 27 ft 13 kts 269°
2026-04-24 16:24 33.87376 10.77315 27 ft 15 kts 261°
2026-04-24 16:25 33.87365 10.77180 27 ft 17 kts 267°
2026-04-24 16:25 33.87360 10.77024 27 ft 20 kts 268°
2026-04-24 16:25 33.87356 10.76844 24 ft 24 kts 268°
2026-04-24 16:26 33.87342 10.76397 21 ft 29 kts 267°
2026-04-24 16:26 33.87337 10.76157 17 ft 20 kts 270°
2026-04-24 16:26 33.87445 10.76052 20 ft 11 kts
2026-04-24 16:27 33.87504 10.76062 22 ft 5 kts 59°
2026-04-24 16:27 33.87507 10.76135 23 ft 26 kts 90°
2026-04-24 16:27 33.87522 10.76733 21 ft 112 kts 88°
2026-04-24 16:27 33.87552 10.77917 289 ft 152 kts 86°
2026-04-24 16:28 33.87699 10.79159 1135 ft 153 kts 66°
2026-04-24 16:28 33.88491 10.80047 1817 ft 172 kts 30°
2026-04-24 16:28 33.91091 10.79421 3194 ft 221 kts 330°
2026-04-24 16:29 33.92362 10.78362 4355 ft 221 kts 325°
2026-04-24 16:29 33.93594 10.77270 5576 ft 217 kts 325°
2026-04-24 16:29 33.96373 10.76022 7777 ft 218 kts 353°
2026-04-24 16:30 33.99441 10.75699 9722 ft 236 kts 353°
2026-04-24 16:30 34.01179 10.75527 10005 ft 262 kts 354°
2026-04-24 16:30 34.03031 10.75348 10088 ft 270 kts 354°
2026-04-24 16:31 34.04960 10.75160 10468 ft 295 kts 354°
2026-04-24 16:31 34.07083 10.74948 10934 ft 319 kts 354°
2026-04-24 16:31 34.09357 10.74723 11561 ft 334 kts 354°
2026-04-24 16:31 34.11704 10.74494 12413 ft 341 kts 354°
2026-04-24 16:32 34.14094 10.74263 13303 ft 348 kts 354°
2026-04-24 16:32 34.16534 10.74027 14141 ft 354 kts 354°
2026-04-24 16:32 34.19005 10.73787 14949 ft 359 kts 354°
2026-04-24 16:32 34.21506 10.73544 15774 ft 362 kts 354°
2026-04-24 16:33 34.24031 10.73298 16592 ft 366 kts 354°
2026-04-24 16:33 34.26587 10.73046 17416 ft 370 kts 354°
2026-04-24 16:33 34.29172 10.72790 18199 ft 375 kts 353°
2026-04-24 16:33 34.31794 10.72552 18909 ft 379 kts 354°
2026-04-24 16:34 34.34443 10.72352 19663 ft 381 kts 354°
2026-04-24 16:34 34.37102 10.72172 20433 ft 383 kts 354°
2026-04-24 16:34 34.39763 10.71996 21162 ft 385 kts 354°
2026-04-24 16:34 34.42406 10.71819 21804 ft 386 kts 354°
2026-04-24 16:35 34.45091 10.71638 22033 ft 386 kts 354°
2026-04-24 16:35 34.47795 10.71442 22090 ft 397 kts 353°
2026-04-24 16:35 34.50610 10.71183 22090 ft 414 kts 353°
2026-04-24 16:35 34.53523 10.70870 22092 ft 428 kts 352°
2026-04-24 16:36 34.56539 10.70526 22087 ft 439 kts 352°
2026-04-24 16:36 34.59603 10.70175 22086 ft 445 kts 352°
2026-04-24 16:36 34.62690 10.69830 22084 ft 446 kts 352°
2026-04-24 16:36 34.65788 10.69496 22084 ft 447 kts 353°
2026-04-24 16:37 34.68889 10.69170 22084 ft 447 kts 353°
2026-04-24 16:37 34.71998 10.68932 22080 ft 448 kts 358°
2026-04-24 16:37 34.74070 10.69038 22086 ft 449 kts
2026-04-24 16:37 34.78213 10.69307 22089 ft 449 kts
2026-04-24 16:38 34.80901 10.69481 22083 ft 450 kts
2026-04-24 16:38 34.84131 10.69692 22092 ft 450 kts
2026-04-24 16:38 34.87266 10.69904 22119 ft 450 kts
2026-04-24 16:38 34.90386 10.70123 22159 ft 449 kts
2026-04-24 16:39 34.92924 10.70316 22194 ft 449 kts